カタログに戻る

STARLINK-36898

運用中通信VLEO
NORAD 68002·PAYLOAD·🇺🇸 United States

打ち上げ Feb 27, 2026 から Vandenberg Space Force Base

Loading…

次のパス (今後24時間)

TLE

最新Source: CelesTrak SupGP

元期: Sep 14, 2026, 20:57 UTC

1 68002C 26039S   26257.87340278  .00062669  00000+0  22701-2 0  2576
2 68002  43.0001  60.8237 0001387 270.7515  70.5612 15.27544503    16

AllMySatでSTARLINK-36898をリアルタイム追跡

Download on the App Store